Weather History for KMHK - October, 2011

Change the Weather History Date:

Tuesday, October 25, 2011

  Actual Average Record
Temperature  
Mean Temperature 68 °F 52 °F  
Max Temperature 79 °F 65 °F 88 °F (2014)
Min Temperature 54 °F 39 °F 25 °F (2005)
Degree Days  
Heating Degree Days 0 13  
Month to date heating degree days 239  
Since 1 July heating degree days 309  
Cooling Degree Days 2 0  
Month to date cooling degree days 21  
Year to date cooling degree days 1358  
Growing Degree Days 18 (Base 50)    
Moisture  
Dew Point 46 °F    
Average Humidity 48    
Maximum Humidity 68    
Minimum Humidity 24    
Precipitation  
Precipitation 0.00 in 0.07 in 1.24 in (2006)
Month to date precipitation 1.86  
Year to date precipitation 29.57  
Sea Level Pressure  
Sea Level Pressure 29.79 in    
Wind  
Wind Speed 16 mph (WSW)    
Max Wind Speed 24 mph    
Max Gust Speed 36 mph    
Visibility 10 miles    
Events      
T = Trace of Precipitation, MM = Missing Value Source: NWS Daily Summary

Daily Weather History Graph

Daily Weather History Graph

Search for Another Location

Airport or City:

Trip Planner

Search our weather history database for the weather conditions in past years. The results will help you decide how hot, cold, wet, or windy it might be!

Date:

Astronomy

Oct. 25, 2011 Rise Set
Actual Time 7:46 AM CDT 6:34 PM CDT
Civil Twilight 7:19 AM CDT 7:01 PM CDT
Nautical Twilight 6:47 AM CDT 7:33 PM CDT
Astronomical Twilight 6:16 AM CDT 8:04 PM CDT
Moon 6:20 AM CDT (10/25) 5:36 PM CDT (10/25)
Length of Visible Light 11h 42m
Length of Day
10h 48m
Waning Crescent, 2% of the Moon is Illuminated
Oct 25
Waning Crescent
Oct 26
New
Nov 2
First Quarter
Nov 10
Full
Nov 18
Last Quarter

Hourly Weather History & Observations

Time (CDT) Temp. Dew Point Humidity Pressure Visibility Wind Dir Wind Speed Gust Speed Precip Events Conditions
12:52 AM 70.0 °F 48.0 °F 46% 29.83 in 10.0 mi SSW 17.3 mph 27.6 mph N/A   Clear
1:52 AM 69.1 °F 45.0 °F 42% 29.81 in 10.0 mi SSW 18.4 mph 27.6 mph N/A   Clear
2:52 AM 69.1 °F 43.0 °F 39% 29.79 in 10.0 mi SSW 19.6 mph 27.6 mph N/A   Clear
3:52 AM 68.0 °F 44.1 °F 42% 29.75 in 10.0 mi SSW 20.7 mph 28.8 mph N/A   Clear
4:52 AM 66.0 °F 50.0 °F 56% 29.75 in 10.0 mi SSW 17.3 mph 27.6 mph N/A   Clear
5:52 AM 66.9 °F 53.1 °F 61% 29.73 in 10.0 mi SSW 23.0 mph 32.2 mph N/A   Clear
6:52 AM 66.9 °F 54.0 °F 63% 29.71 in 10.0 mi SSW 24.2 mph 35.7 mph N/A   Clear
7:52 AM 64.9 °F 54.0 °F 68% 29.70 in 10.0 mi SSW 23.0 mph 34.5 mph N/A   Clear
8:52 AM 66.0 °F 54.0 °F 65% 29.71 in 10.0 mi SSW 20.7 mph 32.2 mph N/A   Clear
9:52 AM 69.8 °F 53.6 °F 56% 29.73 in 10.0 mi SSW 20.7 mph 27.6 mph N/A   Clear
10:52 AM 73.0 °F 53.1 °F 49% 29.71 in 10.0 mi SSW 17.3 mph 27.6 mph N/A   Clear
11:52 AM 75.9 °F 48.9 °F 38% 29.69 in 10.0 mi SSW 23.0 mph 31.1 mph N/A   Clear
12:52 PM 78.1 °F 46.0 °F 32% 29.69 in 10.0 mi West 16.1 mph 28.8 mph N/A   Clear
1:52 PM 77.0 °F 37.9 °F 24% 29.70 in 10.0 mi West 15.0 mph 21.9 mph N/A   Clear
2:52 PM 75.9 °F 44.1 °F 32% 29.72 in 10.0 mi NW 11.5 mph 23.0 mph N/A   Clear
3:52 PM 73.0 °F 43.0 °F 34% 29.76 in 10.0 mi NW 11.5 mph 19.6 mph N/A   Clear
4:52 PM 69.1 °F 42.1 °F 38% 29.79 in 10.0 mi NW 8.1 mph - N/A   Clear
5:52 PM 66.0 °F 42.1 °F 42% 29.82 in 10.0 mi Variable 5.8 mph - N/A   Clear
6:52 PM 64.0 °F 42.1 °F 45% 29.86 in 10.0 mi NNW 3.5 mph - N/A   Clear
7:52 PM 62.1 °F 42.1 °F 48% 29.90 in 10.0 mi North 5.8 mph - N/A   Clear
8:52 PM 60.1 °F 42.1 °F 51% 29.91 in 10.0 mi NNE 8.1 mph - N/A   Clear
9:52 PM 59.0 °F 42.1 °F 53% 29.94 in 10.0 mi North 4.6 mph - N/A   Clear
10:52 PM 57.0 °F 42.1 °F 57% 29.96 in 10.0 mi Calm Calm - N/A   Clear
11:52 PM 54.0 °F 42.1 °F 64% 29.97 in 10.0 mi North 4.6 mph - N/A   Clear